This is the latest recevied weather packets stored in our database for station/object IZ1GCT. If no packets are shown the sender has not sent any weather packets the latest 10 day(s).
| Time | Temp. | Humidity | Pressure | Rain* | Wind** | Luminosity | Snow |
|---|---|---|---|---|---|---|---|
| 1777691744 | 7.78° C | 71% | 1028.8 hPa | 0 mm | - | - | - |
| 1777691444 | 7.78° C | 70% | 1028.8 hPa | 0 mm | - | - | - |
| 1777691143 | 8.33° C | 68% | 1028.9 hPa | 0 mm | - | - | - |
| 1777690842 | 8.89° C | 67% | 1028.9 hPa | 0 mm | - | - | - |
| 1777690543 | 8.89° C | 70% | 1028.8 hPa | 0 mm | - | - | - |
| 1777690243 | 8.33° C | 70% | 1028.7 hPa | 0 mm | - | - | - |
| 1777689942 | 8.33° C | 71% | 1028.8 hPa | 0 mm | - | - | - |
| 1777689643 | 8.33° C | 72% | 1028.8 hPa | 0 mm | - | - | - |
| 1777689343 | 7.78° C | 75% | 1028.8 hPa | 0 mm | - | - | - |
| 1777689042 | 7.22° C | 82% | 1028.8 hPa | 0 mm | - | - | - |
| 1777688744 | 7.22° C | 83% | 1028.8 hPa | 0 mm | - | - | - |
| 1777688443 | 7.22° C | 83% | 1028.8 hPa | 0 mm | - | - | - |
| 1777688143 | 7.22° C | 83% | 1028.8 hPa | 0 mm | - | - | - |
| 1777687842 | 7.22° C | 82% | 1028.8 hPa | 0 mm | - | - | - |
| 1777687544 | 7.22° C | 79% | 1028.7 hPa | 0 mm | - | - | - |
| 1777687243 | 7.78° C | 76% | 1028.7 hPa | 0 mm | - | - | - |
| 1777686942 | 7.78° C | 77% | 1028.7 hPa | 0 mm | - | - | - |
| 1777686644 | 7.78° C | 80% | 1028.7 hPa | 0 mm | - | - | - |
| 1777686343 | 7.22° C | 86% | 1028.7 hPa | 0 mm | - | - | - |
| 1777686042 | 6.67° C | 86% | 1028.7 hPa | 0 mm | - | - | - |
| 1777685744 | 7.22° C | 86% | 1028.6 hPa | 0 mm | - | - | - |
| 1777685443 | 6.67° C | 86% | 1028.7 hPa | 0 mm | - | - | - |
| 1777685142 | 7.22° C | 86% | 1028.5 hPa | 0 mm | - | - | - |
| 1777684844 | 6.67° C | 86% | 1028.6 hPa | 0 mm | - | - | - |
| 1777684542 | 6.67° C | 85% | 1028.7 hPa | 0 mm | - | - | - |
* Rain latest hour (hover to see other rain measurements)
** Current wind speed in m/s (hover to see current wind gust speed)